User: anonymous   Login
Location: Unspecified
(0.0000°N, 0.0000°E)
Time: 07:09:19
(UTC+02:00)
Language:

Cosmos 1703 - Orbit

View from above orbital plane
View from above orbital plane
View from above satellite
View from above satellite

Ground track
Ground track

The orbit data is extracted from the following two-line orbital elements,

1 16262U 85108A   17235.26607237  .00001453  00000-0  86464-4 0  9995
2 16262  82.4825 184.0652 0013376  49.5549 310.6845 15.10420071729028
Epoch (UTC): 23 August 2017 06:23:08
Eccentricity: 0.0013376
inclination: 82.4825°
perigee height: 525 km
apogee height: 544 km
right ascension of ascending node: 184.0652°
argument of perigee: 49.5549°
revolutions per day: 15.10420071
mean anomaly at epoch: 310.6845°
orbit number at epoch: 72902

The dashed part of the orbit path shows where the satellite is in the earth's shadow,  

DLR